Flag Weather past 2 weeks in Zárate, Buenos Aires, Argentina

Now
75 °F

Sunny.


Feels Like: 78 °F
Forecast: 58 / 90 °F
Wind: 12 mph from North

Location: Buenos Aires Airport

Current Time: Nov 28, 2014 at 11:45:48 AM

Latest Report: Nov 28, 2014 at 11:00 AM


Visibility: 10 mi

Pressure: 30.04 "Hg

Humidity: 47%

Dew point: 54 °F

Location of ZárateLocation

Historic Weather in Zárate — Graph

°F

Zárate temperature yesterday

Maximum temperature yesterday: 77 °F (at 3:00 PM)
Minimum temperature yesterday: 64 °F (at 3:00 AM)
Average temperature yesterday: 71 °F

Past Weeks' High & Low Weather Summary

 TemperatureHumidityPressure
High88 °F (Nov 18, 4:00 PM)94% (Nov 19, 9:00 AM)30.15 "Hg (Nov 19, 9:00 AM)
Low57 °F (Nov 14, 6:00 AM)31% (Nov 22, 3:00 PM)29.65 "Hg (Nov 18, 6:00 PM)
Average71 °F61%29.93 "Hg
* Reported Nov 13 10:00 AM — Nov 28 10:00 AM, Zárate, Weather by CustomWeather, © 2014

Note: Actual official high and low records may vary slightly from our data, if they occured in-between our weather recording intervals... More about our weather records

Advertising

Zárate weather history for previous 24 hours

 ConditionsComfort  
Time TempWeatherWind HumidityBarometerVisibility
10:00 AM
Nov 28
73 °FSunny.12 mph50%30.04 "Hg10 mi
9:00 AM73 °FSunny.9 mph50%30.07 "Hg10 mi
8:00 AM72 °FSunny.8 mph57%30.07 "Hg10 mi
7:00 AM72 °FSunny.14 mph53%30.04 "Hg10 mi
6:00 AM72 °FSunny.14 mph57%29.98 "Hg10 mi
11:00 PM
Nov 27
73 °FClear.8 mph61%29.98 "Hg10 mi
10:00 PM73 °FClear.8 mph61%29.98 "Hg10 mi
9:00 PM73 °FClear.6 mph61%29.98 "Hg10 mi
8:00 PM73 °FClear.7 mph61%29.95 "Hg10 mi
7:00 PM75 °FClear.6 mph54%29.95 "Hg10 mi
6:00 PM75 °FSunny.6 mph54%29.95 "Hg10 mi
5:00 PM77 °FSunny.6 mph54%29.95 "Hg10 mi
4:00 PM77 °FPassing clouds.6 mph44%29.98 "HgN/A
3:00 PM77 °FSunny.5 mph44%29.98 "Hg10 mi
2:00 PM75 °FSunny.6 mph54%30.01 "Hg10 mi
1:00 PM73 °FSunny.6 mph61%30.01 "Hg10 mi
12:00 PM73 °FSunny.8 mph57%30.04 "Hg10 mi
11:00 AM72 °FPassing clouds.5 mph69%30.04 "HgN/A
Weather by CustomWeather, © 2014

See weather overviewHow to use our weather pages